Theta_e
332 325 320 318 313 310 308 302 292 289 291 286 286 288 288 295 299 298 297 296 298 300 303 325 326 318 319 318 323 328 329 313 312 305 303 323 343 345 346 348 352 353 353 354 355 355 354 356 355 356 356 355 354 353 352 353 353 352 352 351 352 351 351 351 351 350 351 351 350 349 349 348 347 347 347 347 347 347 347 346 346 345 345 345 345 346 348 348 348 348 348 348 349 349 349 350 349
324 320 319 316 313 310 305 296 287 288 285 282 287 288 290 294 297 295 296 296 296 306 319 325 328 331 332 332 331 329 327 330 332 328 334 341 345 345 347 350 352 351 353 354 355 354 354 355 355 355 355 354 353 353 353 352 353 352 351 351 351 351 351 350 351 350 351 351 349 349 349 348 348 347 348 347 346 347 347 347 346 345 345 345 346 346 347 347 348 348 348 348 348 349 349 349 348
319 314 313 312 309 307 304 298 291 283 285 283 285 290 294 294 294 297 298 297 296 304 312 316 321 321 323 325 322 323 317 334 335 336 335 343 338 341 347 349 352 352 354 354 354 353 353 354 355 355 354 354 353 353 353 353 352 352 351 350 352 350 351 351 351 350 351 351 350 349 349 348 348 347 347 347 347 349 348 347 346 347 346 344 345 345 346 347 347 348 347 348 348 348 348 347 347
316 314 311 311 305 299 296 293 285 284 284 282 286 290 291 292 293 296 296 297 297 298 308 316 322 327 325 322 326 333 329 330 335 336 334 337 338 343 347 349 352 353 354 354 353 353 353 354 355 354 354 353 354 354 354 352 351 351 350 351 350 351 351 351 351 351 350 351 350 349 349 349 348 347 347 347 348 348 348 348 347 347 347 347 346 346 346 346 347 347 347 347 348 347 346 345 344
311 317 315 310 299 298 296 292 288 286 285 284 283 288 294 293 294 294 296 297 296 297 316 321 323 330 331 329 329 324 326 332 334 338 336 340 344 345 347 350 352 352 352 353 353 352 353 356 355 354 354 354 354 353 353 353 351 351 351 350 352 352 351 351 351 351 351 350 349 349 349 348 347 348 347 346 347 348 347 347 347 346 346 346 346 346 346 347 347 347 347 347 347 346 345 345 345
309 308 313 312 304 302 297 292 290 288 290 289 288 292 294 296 297 297 297 298 298 305 312 312 323 324 327 329 332 325 332 326 333 335 337 337 344 346 347 350 351 351 352 353 352 352 353 355 354 354 353 353 353 353 353 353 353 352 352 351 351 351 351 351 351 351 350 350 349 349 348 348 348 347 346 346 348 348 347 347 346 346 346 346 346 346 346 346 346 347 347 347 348 347 345 345 344
307 304 304 304 301 299 290 287 287 288 295 294 294 297 299 300 298 297 300 298 315 325 324 327 330 329 324 328 332 334 337 337 335 334 339 341 345 346 348 349 350 350 352 352 352 352 353 354 354 354 354 353 353 353 353 353 352 352 352 351 352 351 351 351 351 351 351 350 349 348 348 348 347 346 346 346 348 348 347 347 346 346 347 347 348 347 346 346 346 347 346 347 347 346 344 344 344
311 303 302 296 292 294 291 288 289 290 293 297 298 298 301 301 301 299 299 298 297 318 325 327 330 326 323 333 322 332 337 339 338 340 342 343 343 345 347 348 348 350 351 352 352 352 355 354 354 353 354 354 354 353 353 353 353 352 352 352 352 351 350 351 351 351 350 350 349 349 349 348 347 346 346 347 347 347 347 347 347 347 347 348 347 346 346 346 346 346 347 346 346 346 345 345 344
306 301 303 294 292 290 286 288 289 293 295 297 299 301 310 305 303 299 298 296 315 323 325 327 327 320 324 327 324 331 334 339 340 343 342 341 341 343 346 347 348 349 351 352 352 352 352 354 353 354 354 353 353 353 353 353 353 353 352 352 352 351 351 351 351 351 350 350 349 349 349 349 348 347 347 347 347 347 347 347 348 349 349 348 347 346 346 347 347 347 347 346 346 346 346 345 344
303 300 295 293 289 290 286 287 290 291 292 295 297 299 299 300 299 299 297 312 317 324 327 330 327 323 328 323 326 327 329 338 338 338 340 340 341 343 345 347 349 350 350 351 352 352 351 355 353 354 353 353 353 353 353 353 353 353 352 352 352 352 352 351 351 351 350 351 350 349 349 349 348 348 347 348 347 348 347 348 348 348 348 347 347 347 346 346 347 347 347 347 347 347 346 345 344
298 298 297 292 287 287 287 286 289 293 295 298 299 300 300 300 298 297 296 307 315 324 327 330 326 326 327 327 330 338 338 337 335 333 337 340 342 342 344 347 350 350 350 351 352 352 352 352 355 353 353 353 353 353 353 353 352 352 352 352 352 352 352 351 351 351 351 350 350 350 349 350 349 348 348 348 347 348 347 347 348 349 348 347 347 347 347 347 347 347 346 346 346 346 346 345 345
297 295 294 285 285 286 286 288 291 294 296 295 296 299 297 299 297 297 304 315 322 325 325 328 325 331 325 326 325 330 335 334 334 336 339 340 341 344 346 347 349 350 351 351 352 351 351 351 352 354 353 353 352 353 353 352 352 352 352 352 352 352 352 351 351 351 350 351 350 350 349 350 350 350 350 349 348 347 348 348 349 348 347 347 347 347 347 347 346 346 346 346 346 346 346 346 346
296 293 288 287 285 288 290 289 290 295 293 292 294 298 297 297 298 297 298 312 321 322 320 328 333 331 321 325 329 333 331 333 336 338 340 341 342 346 348 348 350 351 351 351 351 350 350 351 351 352 352 354 352 352 352 352 351 351 351 351 352 351 352 351 351 351 351 351 350 350 349 349 350 350 350 350 349 348 349 349 348 348 347 347 347 347 347 346 346 346 346 346 346 347 346 346 346
297 295 291 290 288 287 290 289 290 289 288 290 293 295 298 298 299 296 316 315 316 321 328 334 333 332 326 328 329 328 330 336 338 340 342 343 344 346 346 348 349 350 351 351 350 350 349 350 351 351 351 350 349 352 352 352 351 350 350 350 351 351 351 351 351 351 351 351 351 350 349 350 350 350 350 350 349 349 348 348 348 347 347 347 347 347 347 347 347 347 346 346 346 346 346 345 345
301 296 292 290 288 289 289 290 287 287 288 292 296 297 297 301 298 308 320 318 320 329 334 337 335 327 321 326 324 329 332 336 339 341 341 342 343 344 345 347 348 349 350 350 351 350 349 350 350 350 350 348 347 346 347 350 351 351 350 350 351 351 351 351 351 351 352 351 351 350 350 350 351 350 350 349 349 348 348 347 347 346 346 347 347 347 347 347 347 346 346 346 346 346 345 345 346
302 295 291 292 287 287 289 289 289 291 290 292 294 297 299 314 317 309 316 314 321 331 332 323 330 321 329 329 330 333 334 337 340 340 340 339 340 341 344 345 345 346 347 349 349 350 350 350 349 349 347 346 346 346 346 346 350 351 351 351 351 351 351 351 350 352 352 351 351 350 350 350 350 349 350 349 349 348 347 346 347 347 346 346 346 347 347 347 347 346 346 346 346 346 346 345 345
299 298 291 286 287 287 287 289 288 286 290 292 295 295 299 307 314 325 330 331 325 328 331 332 330 335 332 331 335 335 336 339 340 338 337 337 338 337 339 339 340 342 343 344 345 347 348 348 347 347 347 346 347 347 346 345 348 350 350 351 351 351 350 351 351 352 350 350 349 349 348 346 345 346 347 346 348 346 347 347 347 347 346 345 346 346 347 347 347 346 346 346 345 344 343 344 344
298 291 287 286 286 288 289 291 291 294 293 293 295 296 294 296 306 324 326 329 329 329 328 331 333 332 334 334 336 337 337 337 337 336 334 334 335 335 335 336 338 337 339 340 343 344 345 346 346 346 346 346 347 347 346 345 346 348 346 347 347 348 350 350 349 347 349 345 349 347 345 346 344 343 345 348 345 346 346 347 346 346 345 345 345 345 346 346 347 346 346 346 346 343 339 332 337
295 289 288 288 288 291 292 293 294 294 293 294 295 295 296 296 302 309 320 321 323 324 327 329 327 331 333 334 335 335 336 335 335 335 333 332 333 333 333 334 335 335 336 338 339 341 342 343 345 344 345 346 346 346 345 344 344 343 343 345 346 348 348 348 345 346 342 343 343 343 344 342 342 343 344 346 345 347 346 346 346 346 346 345 344 344 345 345 345 345 346 345 343 340 331 331 331
296 290 287 289 291 292 293 295 296 297 296 295 294 295 294 296 298 306 319 318 323 322 323 326 326 327 330 331 333 334 335 334 334 333 333 332 333 333 333 333 333 334 334 336 336 339 340 341 343 344 345 345 345 345 344 343 344 344 343 343 343 343 343 344 342 342 342 342 342 342 341 342 342 342 348 348 348 344 344 346 346 345 345 345 343 342 344 344 344 344 345 339 333 334 331 332 331
294 294 290 291 292 293 297 297 297 297 296 296 294 295 295 296 297 311 318 314 315 318 327 327 325 328 329 331 332 333 333 333 333 333 332 332 332 332 332 332 332 332 333 335 337 336 338 340 342 343 344 345 344 345 344 343 345 345 345 344 342 342 342 341 341 340 340 341 341 341 341 342 341 341 342 342 341 340 338 338 339 336 335 334 341 329 330 335 331 328 328 327 325 329 329 330 332
294 294 296 293 293 293 297 296 296 296 296 294 293 295 297 297 308 316 313 306 306 319 327 330 331 331 330 330 331 332 332 332 332 332 331 331 330 330 331 331 331 332 334 334 334 336 337 340 342 342 343 343 343 343 343 345 345 344 344 344 345 344 343 341 339 339 339 340 340 341 341 339 339 339 339 340 340 338 336 334 334 333 331 331 333 328 327 326 324 326 326 325 324 325 327 329 334
292 291 293 293 297 296 299 297 296 295 295 295 297 296 297 295 295 307 303 304 306 320 330 333 332 332 333 333 332 331 331 331 331 331 332 329 328 328 328 329 329 330 332 333 335 335 337 339 341 341 340 340 341 341 343 344 343 344 344 344 344 343 343 341 339 337 339 340 340 341 339 338 336 336 339 341 340 337 335 333 332 332 332 329 329 327 327 325 324 323 323 322 322 324 326 328 331
294 291 292 295 295 295 297 297 294 293 294 294 296 297 298 295 295 296 305 311 306 329 334 334 333 333 333 331 331 331 331 331 331 332 332 331 330 329 330 329 329 330 331 333 335 335 336 337 338 338 338 339 339 341 341 341 341 342 344 345 343 344 342 340 339 338 339 340 340 340 341 338 337 336 338 339 339 336 334 333 330 331 332 329 328 326 325 324 322 322 322 323 324 324 326 327 331
292 291 293 295 296 295 296 296 297 295 294 293 296 297 295 294 295 296 312 320 328 333 334 333 333 332 332 331 330 331 330 331 330 331 332 330 329 331 329 330 330 330 330 332 335 335 334 335 334 336 338 339 340 340 339 339 340 341 343 342 341 344 340 339 338 338 337 338 338 338 339 336 336 337 338 338 339 336 333 333 331 330 329 329 327 326 325 323 322 322 323 323 321 322 323 327 329
294 296 296 295 295 296 295 294 293 294 296 295 296 294 293 293 295 296 315 323 331 334 333 333 332 331 330 331 331 330 329 329 330 330 331 331 331 330 329 330 330 329 330 333 334 334 333 334 334 336 339 339 340 340 338 338 338 340 340 340 341 342 338 338 336 336 336 337 336 336 338 337 336 336 337 338 337 335 334 333 332 330 329 328 326 325 325 324 322 322 323 323 324 322 326 330 328
293 294 294 295 296 296 295 294 293 293 295 294 295 292 293 295 295 291 315 326 332 333 332 333 332 330 331 332 331 330 329 329 330 330 329 330 330 330 330 330 330 330 331 331 334 334 334 334 334 337 340 341 339 338 336 336 337 337 338 338 339 338 337 336 334 333 334 334 334 335 334 336 336 336 337 336 334 334 333 333 331 330 330 329 328 327 325 325 323 323 324 323 322 323 324 327 328
295 294 293 292 293 293 294 293 292 293 295 293 294 293 293 293 294 297 320 326 332 330 331 332 332 332 332 332 331 330 330 331 331 329 328 328 329 330 330 330 329 329 330 330 332 334 335 334 334 336 338 337 337 336 336 335 335 335 336 337 336 335 335 334 334 334 334 333 333 333 335 336 337 336 336 335 334 333 332 332 331 330 329 328 328 325 325 326 325 327 327 325 324 326 326 327 328
295 295 291 292 290 293 292 293 294 293 295 294 294 293 292 291 292 302 322 328 330 330 329 330 331 332 333 333 332 330 330 330 330 329 329 331 331 332 331 332 331 329 330 331 332 335 335 334 334 336 337 337 336 335 335 334 333 333 333 336 336 334 333 335 334 333 333 333 333 333 334 335 335 336 336 336 336 332 331 330 329 330 329 329 328 326 327 326 329 328 327 327 326 327 327 327 328
296 294 290 290 287 287 290 293 294 294 296 294 295 286 285 289 291 307 323 327 329 328 327 328 329 330 332 333 332 330 329 329 328 330 330 331 331 332 332 332 332 331 330 330 332 334 336 336 335 336 337 336 335 335 335 334 333 332 333 333 336 334 333 334 335 333 333 333 334 334 333 334 335 335 335 334 333 332 331 330 330 329 328 328 329 329 328 327 328 327 326 328 330 326 326 325 327
291 290 291 286 287 284 289 293 293 294 295 294 295 287 288 289 290 306 324 327 327 325 326 327 327 327 329 331 331 330 329 329 329 330 331 331 331 332 333 332 332 331 331 330 332 334 336 336 336 335 337 335 334 334 334 333 332 331 331 330 332 333 333 333 333 333 333 333 333 334 333 334 335 335 335 334 333 332 331 330 329 329 329 329 329 328 330 329 328 327 326 326 325 326 327 328 329
288 287 283 283 285 283 289 292 293 293 295 295 294 288 289 293 292 307 323 326 327 324 325 326 326 325 326 328 329 329 328 329 329 330 330 331 330 330 331 331 332 331 331 331 333 336 335 334 335 335 335 332 332 333 333 332 331 330 331 333 332 333 335 334 334 334 333 334 334 333 334 335 335 335 335 333 332 331 331 330 329 330 331 330 330 331 331 329 327 326 325 327 326 326 328 328 330
285 286 282 286 285 284 288 291 293 294 294 295 294 287 286 290 293 308 323 325 325 323 323 324 324 324 324 325 327 327 327 327 328 329 329 330 330 330 331 331 332 332 331 332 334 335 335 335 336 334 333 332 332 332 332 331 331 331 331 332 331 334 334 334 334 334 334 334 334 334 334 335 335 334 334 333 332 331 330 330 330 332 331 332 332 330 329 329 327 327 325 326 327 326 328 329 330
281 284 284 286 287 285 285 289 291 293 294 290 293 291 290 291 293 308 320 323 321 321 322 323 323 323 323 323 323 323 325 326 327 329 329 329 330 330 330 334 332 332 333 333 334 335 335 336 335 334 332 333 332 331 331 330 331 331 330 331 333 332 333 334 334 334 334 334 335 335 334 335 335 333 333 332 331 331 331 331 332 332 332 331 331 329 328 328 327 327 325 325 327 327 328 329 330
282 283 284 284 284 287 286 287 289 293 293 291 291 290 292 290 292 301 316 320 319 319 321 321 322 322 322 320 320 321 324 325 327 328 329 329 330 330 330 331 331 333 334 333 332 334 336 335 334 333 332 332 331 330 330 329 329 328 328 329 329 329 331 333 334 334 334 334 334 335 334 335 336 334 332 332 331 332 331 332 332 332 332 331 330 328 327 327 327 326 326 325 326 326 329 331 331
286 286 285 284 285 284 286 289 292 294 291 289 289 289 291 292 294 302 306 315 313 315 318 319 321 322 319 318 319 320 322 324 326 328 329 330 330 330 329 330 331 333 334 334 333 334 335 333 333 332 332 332 329 329 329 328 326 328 328 328 329 330 331 333 334 334 334 334 335 335 334 334 335 334 333 332 332 332 332 332 331 331 331 331 329 328 327 327 326 326 326 326 325 327 327 329 330
288 288 287 286 286 287 289 291 294 292 292 290 290 291 291 291 293 297 306 311 312 313 314 316 319 317 315 317 319 320 320 323 326 328 329 329 330 329 329 330 331 333 333 334 334 334 334 332 332 330 331 330 328 327 327 327 327 327 327 328 328 330 330 332 333 334 335 334 335 336 335 334 334 333 333 332 332 335 332 331 331 330 330 330 330 329 329 328 328 328 327 326 325 324 326 329 329
289 287 287 285 287 285 290 292 294 294 292 288 289 289 290 290 292 293 304 312 311 312 313 314 315 314 314 317 318 319 320 321 324 324 325 327 328 326 329 331 332 330 332 333 333 333 334 332 331 332 332 329 328 328 327 327 328 328 326 326 327 329 330 331 331 333 335 335 334 335 333 333 333 332 333 332 333 333 331 330 330 330 330 329 330 330 329 330 329 328 327 325 324 325 325 328 328
289 287 286 286 286 287 291 292 292 294 292 287 288 289 290 291 294 295 305 311 312 314 314 316 315 313 314 317 318 319 320 321 323 323 324 326 326 328 331 330 330 331 332 333 332 332 333 332 332 332 332 330 329 328 327 326 325 326 324 323 327 326 329 331 332 334 333 332 334 334 333 333 333 333 333 334 332 331 331 330 329 330 329 330 329 328 329 328 328 328 327 325 323 321 325 329 327
287 286 284 283 285 288 284 289 291 293 291 287 288 289 289 292 293 294 299 309 309 312 314 315 316 314 314 317 319 320 321 321 322 323 324 324 326 329 329 328 328 329 330 331 331 331 332 332 332 332 332 332 331 329 328 325 325 325 326 327 327 327 327 331 332 334 332 331 331 333 333 332 333 333 334 334 333 331 330 330 330 329 329 330 329 327 327 327 327 327 326 325 325 322 324 326 327
286 288 285 285 286 287 287 287 290 292 292 291 289 286 285 289 291 293 295 294 302 310 312 312 314 314 314 317 319 322 321 322 322 322 321 321 324 326 326 326 326 327 327 328 329 330 332 332 332 332 332 332 332 331 328 326 327 325 326 327 329 329 329 329 330 330 331 330 331 331 331 332 332 332 334 334 334 332 329 330 330 329 329 328 329 327 327 327 327 327 326 325 325 324 324 325 326
284 288 289 289 289 288 288 290 289 283 284 289 288 279 282 285 288 290 291 290 295 305 309 309 311 311 312 315 318 319 321 322 321 322 323 323 323 324 324 325 325 325 326 327 328 329 331 333 333 332 331 332 332 331 328 327 326 326 323 325 325 326 325 326 326 327 328 328 329 332 331 331 332 332 333 334 334 332 330 330 330 329 329 328 328 327 327 327 326 326 326 326 324 324 326 325 323
284 285 291 291 290 290 289 289 285 281 281 291 290 281 279 282 288 295 295 291 296 300 304 306 309 310 311 313 317 317 318 321 324 324 324 323 321 321 322 323 324 323 323 326 327 328 328 329 332 332 331 331 330 331 329 326 324 323 323 325 326 326 326 327 328 329 329 330 330 329 330 331 332 333 333 334 332 332 331 330 330 329 329 328 329 327 327 327 327 327 327 326 325 325 325 323 323
282 287 291 291 290 290 289 287 286 283 286 289 287 283 280 284 287 295 299 292 298 302 305 306 304 308 309 310 314 316 317 320 322 321 322 321 320 320 320 321 321 321 321 323 324 326 328 328 331 332 332 329 328 329 328 328 326 326 326 326 326 326 327 326 328 329 330 331 328 330 329 330 332 333 334 332 331 331 331 330 330 329 329 328 329 327 327 327 327 327 327 326 325 326 325 324 322
284 289 294 291 292 290 288 285 284 285 286 283 282 288 282 279 284 298 298 295 296 300 306 308 309 306 309 310 315 317 319 320 321 320 319 320 319 317 317 317 319 319 320 321 323 323 325 327 328 328 329 328 328 328 328 327 327 328 326 325 326 327 326 326 326 328 330 331 327 328 328 329 330 332 333 332 332 332 331 330 329 329 329 329 330 327 326 327 326 326 325 325 324 324 325 324 323
290 292 294 292 290 289 287 284 285 283 281 278 282 284 279 278 288 296 299 294 296 297 307 309 311 310 309 312 314 316 318 319 320 319 318 318 317 316 316 316 316 316 318 320 321 323 324 325 325 326 328 327 328 327 327 326 327 327 324 324 325 325 326 326 327 327 329 329 327 326 327 327 327 328 328 330 330 331 330 330 330 330 329 329 330 328 327 326 326 326 326 326 325 324 322 324 324
292 293 293 288 287 285 286 284 283 281 278 277 281 286 281 279 288 294 295 295 296 300 308 310 311 313 315 316 316 316 316 316 316 316 317 316 315 316 316 316 316 317 316 319 319 320 321 324 325 327 329 330 327 326 326 326 327 326 324 325 324 324 324 325 326 327 328 329 327 326 325 326 327 327 328 328 330 331 330 330 330 330 330 331 331 329 327 328 327 327 327 327 326 325 325 324 323
293 290 289 287 286 282 281 278 280 275 273 277 282 285 283 282 289 298 304 307 307 307 306 308 309 310 312 314 314 314 314 313 313 313 312 312 313 314 315 316 316 316 316 316 318 318 319 320 322 323 323 324 325 325 325 325 326 326 325 326 325 324 323 324 325 326 328 328 328 325 326 327 326 326 325 326 327 329 329 329 330 329 329 329 329 329 329 328 328 327 326 326 326 325 325 325 323
289 286 287 282 276 274 276 276 278 274 276 283 283 285 287 286 291 299 305 306 308 309 309 309 310 310 312 313 314 314 314 314 312 311 311 312 312 312 313 315 316 317 316 317 318 318 319 321 320 319 319 323 324 324 324 324 325 325 325 325 325 324 324 325 326 326 328 328 328 326 326 326 325 324 324 324 326 328 328 328 328 328 328 328 329 329 329 329 328 327 326 326 325 325 325 325 323
286 287 280 278 274 271 269 271 270 275 280 283 283 285 282 295 299 303 304 307 309 310 311 311 310 310 311 312 313 314 314 314 313 313 313 312 313 314 315 316 316 316 316 317 317 318 319 320 321 319 318 322 325 325 323 322 324 325 326 325 325 325 324 325 327 327 327 328 328 327 327 327 325 325 325 325 326 327 327 327 328 327 327 327 328 328 328 328 328 328 327 326 325 325 325 324 324
288 286 287 282 276 275 271 274 271 275 277 280 283 282 282 290 294 305 306 308 310 311 311 312 312 312 312 313 313 313 313 314 314 314 314 315 316 317 317 318 319 319 318 318 315 318 319 319 321 321 320 320 322 323 323 322 323 325 326 326 326 326 325 326 326 327 327 327 327 327 327 327 326 324 324 325 325 326 326 325 325 325 324 325 325 326 328 327 327 327 326 325 324 323 324 323 322
287 286 287 284 283 278 278 274 277 276 277 278 282 278 286 290 302 306 308 308 308 311 311 311 310 312 312 312 312 313 313 314 314 314 315 316 318 318 319 319 319 320 320 319 316 317 320 322 322 323 322 321 322 323 323 323 323 324 325 326 326 327 327 327 326 326 327 327 326 326 324 325 325 323 322 323 323 326 324 324 325 324 322 323 324 325 325 326 324 325 323 323 323 325 323 322 321
287 287 283 285 288 285 275 277 281 275 275 274 278 290 294 299 304 306 307 306 307 309 309 309 309 310 311 311 312 313 314 314 314 315 316 317 318 319 320 319 319 319 320 320 320 319 320 321 321 322 322 322 322 322 322 323 323 323 324 326 325 325 326 327 326 326 325 325 325 324 323 323 323 323 323 323 323 323 324 323 324 322 322 322 322 323 324 324 323 324 323 321 322 320 323 322 320
286 282 286 289 290 288 284 276 271 269 270 272 280 287 290 290 286 303 304 303 305 306 307 308 309 310 309 310 312 313 313 315 316 317 318 319 319 319 320 320 320 320 321 321 322 322 322 322 322 321 321 320 321 321 322 322 323 323 323 324 325 325 326 327 326 325 324 324 324 323 322 322 323 324 325 325 323 323 322 326 321 320 320 321 322 322 322 322 322 320 321 321 321 321 321 319 321
292 289 291 287 280 281 281 277 271 272 271 271 279 285 288 283 288 298 300 301 303 305 306 307 307 308 309 310 311 312 313 314 314 315 315 316 318 318 319 320 321 321 322 322 322 323 322 322 322 322 320 321 321 320 320 321 323 323 324 324 324 324 325 326 326 325 324 324 323 323 323 324 323 323 324 323 322 321 320 318 319 318 319 319 320 322 321 321 320 319 318 319 318 321 321 320 319
291 291 289 288 283 278 278 279 278 278 270 270 275 282 278 287 292 301 301 303 303 304 305 306 307 308 309 310 310 311 311 311 312 313 314 314 315 317 318 318 319 319 320 321 321 321 321 322 322 322 322 322 321 320 320 320 321 322 323 324 324 325 325 325 325 324 323 324 324 324 324 322 321 321 322 322 321 320 319 317 317 318 318 318 319 320 321 320 319 320 320 320 318 319 320 320 318
287 286 283 288 286 287 285 283 280 279 271 268 272 274 279 284 294 303 303 304 305 305 305 306 307 309 309 310 309 309 309 309 310 310 311 312 313 315 316 317 318 318 318 318 319 319 320 320 320 321 321 321 320 320 321 322 322 322 323 324 324 325 325 324 324 324 324 323 323 323 323 322 322 321 321 319 320 319 318 318 318 318 318 317 317 317 317 318 318 318 317 318 316 318 320 316 318
287 287 284 284 282 283 280 277 282 280 279 272 274 270 275 287 304 305 305 306 305 306 306 306 306 307 307 307 308 307 307 308 308 308 309 309 310 312 314 315 315 314 314 313 315 317 318 320 320 320 321 321 321 322 322 322 323 323 324 325 323 324 325 324 323 323 323 323 322 322 322 321 321 322 322 320 318 318 318 318 317 316 315 316 317 317 315 316 318 315 313 317 317 316 315 314 314
Wind_Speed
3 1 1 2 2 2 1 3 1 2 2 3 3 1 3 2 4 6 6 6 0 2 2 7 7 4 2 3 10 6 3 3 1 3 1 2 2 7 7 8 8 8 11 11 9 10 11 14 16 17 17 18 20 19 19 19 19 18 18 18 18 19 20 21 21 21 21 21 21 21 22 23 21 20 20 20 20 20 20 20 19 18 19 18 17 17 17 16 16 16 16 15 15 16 17 17 17
0 1 1 0 0 1 1 1 2 1 5 2 6 2 5 2 1 5 5 6 2 3 4 11 13 16 15 11 10 5 5 6 4 1 1 2 5 2 5 11 10 13 10 9 10 9 9 11 16 16 16 18 19 20 20 19 18 18 18 18 19 19 19 20 20 20 21 21 21 22 21 22 22 21 19 20 20 19 18 19 20 18 17 17 17 17 16 15 14 15 15 14 15 15 15 16 15
1 1 2 2 3 3 1 2 1 0 2 2 7 7 2 2 5 8 10 9 4 6 5 5 6 4 3 1 7 5 2 5 4 2 1 5 9 7 8 11 8 7 10 8 8 9 8 10 15 16 17 17 18 19 20 19 19 18 18 18 17 19 19 20 20 21 20 20 20 21 21 21 22 20 19 19 18 16 17 18 19 19 18 16 15 16 16 14 14 13 14 14 13 14 14 13 13
1 2 3 2 0 3 1 2 4 6 3 6 4 5 3 2 7 8 8 10 2 4 1 4 6 3 4 10 5 8 2 2 1 4 5 8 3 4 9 10 8 6 6 8 8 9 8 13 16 15 16 17 17 18 19 19 19 19 18 17 18 18 19 18 20 19 19 20 20 21 20 20 21 20 19 19 16 16 17 17 17 17 17 17 14 14 15 14 13 13 13 13 13 12 12 11 11
1 2 3 3 3 1 1 1 2 3 3 4 3 4 4 5 7 6 8 6 3 3 2 3 5 4 4 8 0 2 7 0 2 5 1 3 1 8 9 9 8 7 7 9 9 9 9 17 15 15 16 18 18 18 19 19 19 19 18 18 17 17 18 19 19 19 19 20 20 20 20 20 21 20 20 20 17 16 19 18 16 16 16 15 14 13 13 13 13 13 13 12 12 11 11 11 11
4 2 3 2 0 1 3 0 0 3 7 4 2 5 5 5 5 5 10 9 1 4 2 3 5 5 4 2 1 3 1 5 0 2 2 5 5 8 9 8 8 8 9 8 8 7 9 18 16 14 15 17 17 18 18 19 19 18 17 18 18 18 18 18 18 18 19 19 19 19 19 20 20 20 19 19 17 19 19 18 17 16 16 16 13 12 12 12 12 12 12 12 12 12 11 11 11
1 4 3 2 1 3 4 1 2 3 9 7 4 7 8 8 3 5 9 6 3 9 4 5 10 9 7 2 1 1 2 4 1 1 2 3 7 7 7 6 7 8 8 7 7 7 11 17 15 15 15 17 17 18 18 18 19 18 18 18 18 18 18 17 17 17 18 17 17 18 19 20 20 19 18 19 18 18 18 17 17 15 15 14 12 11 11 11 11 11 12 12 12 11 11 10 11
1 2 1 1 1 1 0 1 3 4 5 8 5 6 11 10 6 3 9 0 2 2 1 4 1 6 1 4 3 2 5 5 3 4 7 7 8 7 7 7 8 7 8 6 5 6 14 17 16 15 15 16 19 19 18 18 18 16 17 17 17 16 17 17 17 16 16 17 18 17 18 18 19 18 18 18 18 18 18 17 16 17 15 14 11 10 10 11 11 11 12 12 12 11 11 11 10
2 3 0 3 0 2 1 3 5 3 6 4 8 9 13 12 8 3 8 3 2 2 3 3 1 6 4 2 2 3 2 7 5 5 7 6 7 6 6 6 8 8 7 7 6 6 9 14 15 15 16 16 16 17 17 17 16 16 16 16 15 14 14 16 17 16 15 15 16 16 17 18 18 17 17 17 19 17 18 18 18 16 15 13 11 9 9 10 11 11 12 12 12 11 11 11 11
1 2 1 2 3 2 2 5 0 4 4 5 6 10 10 7 7 4 5 1 5 4 3 4 1 7 7 5 1 3 3 6 4 7 4 5 4 4 4 4 6 10 8 7 7 7 7 14 15 15 15 15 15 15 15 14 15 14 15 15 13 13 13 14 13 14 14 15 14 15 15 16 16 16 16 17 18 17 17 18 17 16 14 13 11 10 9 9 10 11 12 11 11 11 11 11 12
0 3 1 2 1 1 3 5 4 6 4 5 8 12 14 10 7 6 2 4 2 4 5 7 8 10 4 1 2 1 3 5 4 3 3 4 4 3 4 4 5 7 9 8 7 7 7 9 16 14 14 14 14 14 14 14 13 13 13 13 14 14 14 12 13 13 13 15 15 15 15 16 16 15 15 16 17 16 16 17 16 15 13 12 11 10 9 9 10 11 11 10 10 10 10 11 12
0 1 1 2 2 5 3 2 5 8 7 5 7 9 4 9 4 2 4 8 2 6 4 1 7 5 6 3 2 2 4 3 3 2 5 4 4 4 5 4 5 5 6 8 8 7 7 8 9 13 13 13 14 14 14 14 13 13 14 14 14 15 15 13 12 13 14 13 14 14 15 16 16 14 13 14 15 15 16 17 16 15 12 11 10 10 9 9 10 10 9 9 10 9 10 11 11
2 1 5 3 2 2 2 2 6 4 5 5 5 2 0 3 4 5 4 5 4 4 2 2 14 4 4 3 2 1 1 0 2 3 4 5 4 4 5 5 5 5 6 7 8 7 7 6 7 8 9 14 13 13 13 13 13 13 13 12 13 13 15 14 12 13 13 14 14 14 15 15 15 15 14 15 16 15 16 16 15 13 12 11 10 10 10 10 10 9 9 9 9 10 11 10 10
3 5 6 3 1 1 1 4 2 3 5 6 3 4 1 1 2 5 9 7 2 0 2 11 6 6 4 3 2 4 4 3 4 4 5 6 5 6 6 5 6 6 6 7 7 7 6 5 6 6 6 7 6 9 10 11 11 11 11 11 12 12 13 12 11 11 12 12 12 13 14 15 15 15 14 13 15 14 15 14 13 12 11 10 10 10 10 10 9 9 8 9 9 10 10 11 11
2 1 1 1 0 0 2 1 3 2 6 2 6 3 3 4 2 4 9 9 3 2 3 3 5 2 6 9 5 9 5 7 7 6 6 7 7 6 6 5 6 5 5 6 6 7 6 6 6 5 5 4 4 3 3 6 9 9 10 10 11 11 11 12 11 10 13 14 14 13 13 15 15 16 15 13 12 13 14 14 13 12 10 10 10 10 10 10 9 8 8 8 9 9 10 10 10
3 3 2 1 2 3 4 3 2 0 7 2 5 1 3 5 3 3 2 2 3 2 2 3 3 1 3 9 4 7 10 9 8 8 8 8 7 6 7 6 5 5 5 5 5 5 5 7 6 5 5 5 4 4 4 3 8 8 8 9 10 9 10 10 11 11 12 14 14 13 12 11 11 11 17 13 14 12 12 9 11 11 10 9 9 10 10 9 8 8 7 8 8 8 10 10 11
1 1 1 1 3 2 3 3 2 0 5 5 7 4 4 3 3 4 4 6 10 2 4 5 4 3 10 1 4 14 11 9 9 9 8 6 5 5 5 4 4 5 4 5 5 5 6 7 7 6 6 5 5 5 4 4 6 11 8 9 10 10 10 11 11 12 11 12 13 12 9 7 5 4 8 8 13 7 8 10 10 10 9 8 8 8 9 9 8 7 7 8 8 9 10 9 11
2 2 3 2 4 1 4 4 3 1 2 6 6 1 6 3 1 2 4 10 7 6 7 3 10 9 6 4 11 12 12 10 10 11 8 7 5 6 5 4 5 4 4 5 5 6 6 6 8 7 6 6 6 5 4 4 4 6 4 5 6 8 9 9 8 6 7 5 10 9 5 5 5 5 5 9 7 8 8 10 9 9 9 7 7 7 8 8 8 7 7 7 7 9 9 6 5
3 1 3 7 3 6 3 3 5 1 4 5 8 2 3 1 5 1 6 0 1 8 5 5 8 9 10 10 11 13 12 9 10 9 11 11 8 8 6 4 5 4 5 5 4 7 6 6 7 7 6 6 7 5 4 4 4 3 4 5 5 7 7 6 5 6 4 4 5 4 5 4 5 4 5 7 7 10 8 9 9 8 8 8 6 6 7 7 7 7 7 7 9 9 5 4 5
4 4 4 6 5 4 4 5 8 5 3 3 8 4 3 2 1 1 4 4 1 10 5 3 4 8 8 9 11 11 11 9 8 8 9 8 5 7 6 6 5 4 4 3 3 5 5 5 8 7 7 7 6 5 4 4 4 4 4 3 4 4 4 4 4 4 5 4 5 4 4 3 5 5 9 14 12 7 6 7 8 8 8 7 6 4 5 6 7 7 8 7 5 4 4 5 5
1 2 5 4 4 3 9 6 9 9 3 1 2 2 4 2 1 3 8 6 1 3 7 11 13 12 11 11 11 11 12 12 9 8 8 7 6 3 3 3 4 4 4 5 4 5 4 6 8 6 7 7 8 5 5 5 4 4 3 3 4 4 3 3 4 4 4 5 5 4 5 4 4 4 4 4 5 6 4 3 3 2 2 2 4 2 2 3 4 4 4 4 4 5 5 5 5
2 7 4 2 1 1 10 2 8 6 5 1 1 2 1 1 3 6 8 5 4 9 11 7 12 15 16 15 12 10 11 10 9 8 9 9 9 7 5 5 5 5 5 5 5 5 4 6 7 6 7 6 7 7 6 6 7 5 4 4 4 4 4 4 3 3 4 4 4 5 5 5 3 4 3 5 6 5 5 3 3 2 2 2 2 2 2 3 3 3 3 2 2 3 6 4 4
4 3 3 5 6 7 1 1 4 5 5 3 1 1 0 2 3 4 6 4 4 3 7 11 12 14 13 12 14 13 12 11 11 10 10 7 6 5 6 5 6 6 5 5 5 5 5 5 7 6 6 5 6 5 5 6 5 5 4 4 4 4 4 4 4 3 4 4 4 5 5 5 4 4 4 4 5 4 5 4 3 3 3 3 1 2 1 1 3 3 3 2 3 2 3 5 4
3 6 1 6 5 9 7 5 7 5 4 4 2 2 0 4 5 2 2 6 4 5 9 10 10 9 12 13 11 12 13 13 12 10 11 12 11 10 8 8 5 5 6 6 6 5 6 6 6 6 5 5 5 5 5 4 4 5 5 6 5 5 6 5 4 4 4 4 4 4 5 5 5 4 5 6 5 4 4 3 2 3 3 2 1 1 1 1 2 2 2 2 3 2 2 6 5
3 4 3 5 5 7 8 8 10 6 5 7 1 1 3 5 2 1 0 1 6 10 12 11 11 11 9 9 10 9 9 8 8 8 5 2 3 4 4 5 6 6 7 8 7 7 6 6 5 6 6 6 5 6 5 3 4 5 5 5 4 6 5 5 5 3 4 4 3 3 3 4 4 3 3 4 5 5 4 4 3 2 2 2 2 1 1 2 1 1 1 2 2 1 5 6 5
5 9 5 4 5 6 6 5 7 8 5 2 1 3 4 6 1 3 1 2 6 12 12 12 12 11 10 10 8 8 9 9 7 7 8 5 5 7 5 6 6 9 9 9 9 7 6 5 6 7 7 7 6 6 5 6 5 5 5 5 5 5 4 4 1 3 2 3 4 2 2 3 3 4 2 3 5 4 4 4 4 3 3 2 2 3 1 2 3 1 2 2 2 3 5 5 5
3 4 5 7 9 8 5 7 6 8 5 3 5 3 5 1 4 1 2 2 9 11 11 10 11 12 11 9 8 8 10 10 11 7 6 5 6 8 8 7 8 6 6 8 8 7 5 5 5 6 7 7 6 5 5 5 4 4 5 5 4 3 3 2 2 3 4 1 2 5 4 1 1 2 4 4 2 3 4 4 4 3 3 3 3 3 2 3 3 3 3 3 4 4 5 5 5
3 3 2 5 8 7 6 2 5 3 3 7 6 7 1 2 1 6 5 4 10 14 11 11 11 10 10 9 9 8 8 7 7 8 10 9 9 9 9 9 8 6 8 9 7 6 7 7 6 5 6 5 5 5 5 4 4 5 5 4 4 5 6 4 3 1 2 3 5 3 2 5 4 3 4 4 4 4 4 4 4 4 4 3 3 3 2 1 2 2 3 3 4 5 5 5 4
3 1 4 9 5 4 2 8 6 4 3 6 6 1 2 1 3 8 8 8 7 13 12 10 10 10 9 10 9 8 9 8 7 8 10 11 9 8 11 9 9 9 5 6 7 7 8 7 7 6 6 7 7 6 5 4 5 5 4 5 5 6 5 5 5 5 3 4 3 2 2 4 3 4 4 5 5 4 4 4 5 4 5 5 4 3 2 2 2 4 4 4 5 5 6 5 5
0 1 2 4 4 3 5 1 0 8 3 8 5 4 7 8 3 5 7 9 7 9 10 10 8 8 9 10 8 8 6 7 8 10 10 9 9 9 10 8 8 8 6 5 6 7 6 5 5 5 7 8 8 5 5 5 5 3 4 4 5 7 5 4 5 5 3 4 5 5 2 3 4 3 3 4 5 5 5 5 5 4 3 3 4 4 4 3 3 4 4 5 5 5 6 5 5
2 2 1 3 0 3 3 1 4 7 1 7 3 3 9 7 3 5 8 12 14 11 10 9 9 8 9 10 9 9 7 8 12 11 10 10 9 8 9 7 7 6 5 6 9 9 9 8 6 5 8 9 9 8 9 7 3 4 4 1 1 4 5 4 3 5 6 5 4 4 4 4 5 4 4 4 6 6 6 5 4 4 4 3 5 4 5 4 4 5 5 6 5 5 5 5 5
1 1 5 3 2 5 7 2 6 5 1 2 5 2 8 9 5 9 8 11 13 12 10 10 9 9 9 9 9 8 7 7 8 9 8 8 8 7 7 8 7 7 8 8 8 8 8 6 6 7 9 10 10 10 7 5 6 6 6 6 4 3 5 6 6 6 7 7 7 6 6 5 5 5 5 5 7 6 6 6 5 3 4 4 5 5 5 6 5 5 3 7 7 5 6 6 5
4 2 4 1 2 5 4 2 2 6 3 1 5 6 3 3 3 13 10 12 11 12 11 10 10 9 8 8 8 7 7 7 7 8 7 7 7 6 7 7 9 9 8 9 9 9 7 7 7 9 10 11 9 5 5 5 7 7 6 6 7 6 6 6 6 6 6 6 6 6 6 6 5 6 7 8 7 7 6 5 5 4 5 6 5 5 5 6 6 5 3 2 7 5 6 8 6
3 1 2 1 0 1 1 7 3 1 3 2 1 2 5 3 2 7 9 11 11 13 13 11 10 9 7 5 5 6 8 8 10 9 8 7 6 5 5 6 7 7 8 9 9 9 8 8 7 8 7 8 7 6 6 7 8 6 5 6 6 6 6 5 5 6 6 5 6 6 8 7 7 6 7 8 7 7 6 6 5 5 5 5 6 5 5 4 4 6 5 2 5 7 6 9 8
1 1 1 2 1 1 3 0 3 2 0 3 1 4 12 5 2 7 10 11 12 12 12 12 11 9 7 5 4 6 8 10 9 6 7 7 6 6 5 5 6 7 7 8 7 6 7 7 7 9 9 7 6 5 5 4 2 2 2 2 2 3 3 3 5 6 6 7 7 8 8 7 7 7 7 8 7 6 6 6 6 6 5 6 6 6 4 4 4 3 6 4 3 4 6 6 7
4 2 1 1 2 3 4 4 4 2 3 3 4 8 11 8 4 5 10 7 6 4 5 8 8 7 6 5 6 7 8 8 5 6 7 6 6 5 4 5 5 6 7 7 8 8 8 8 8 7 9 8 6 6 6 5 3 2 4 2 4 4 2 3 3 4 4 6 7 8 8 6 6 7 8 7 7 7 7 6 6 5 5 6 7 7 6 6 7 6 5 7 7 6 4 6 7
2 1 1 2 3 5 4 4 5 2 2 8 9 11 8 5 4 2 7 7 6 6 7 6 6 6 5 6 7 8 7 8 6 6 6 6 6 3 4 5 6 6 6 7 8 9 9 9 9 9 8 8 7 7 7 7 7 5 4 7 8 4 3 2 3 2 4 4 4 5 6 4 6 6 6 6 6 6 6 6 6 5 5 6 7 7 6 6 6 6 6 4 8 7 3 5 6
0 1 1 6 1 5 5 3 5 4 6 4 2 6 8 5 0 1 2 9 10 12 10 7 5 3 4 7 7 6 5 2 4 4 4 4 4 2 2 3 5 8 5 5 6 8 8 9 10 8 7 8 8 9 8 7 7 7 5 4 2 3 4 3 3 3 4 4 5 3 2 3 2 2 3 3 2 6 6 6 6 6 6 5 5 6 6 6 6 6 7 5 2 6 5 6 7
1 2 1 1 6 4 8 4 3 4 5 6 2 6 9 1 1 2 6 10 11 11 15 15 13 10 9 9 8 7 5 7 6 5 4 6 3 2 3 5 5 6 5 3 2 3 5 6 7 7 7 7 6 5 5 6 3 1 2 2 5 3 3 4 4 4 2 3 5 5 4 5 5 6 6 5 2 2 5 6 6 5 5 5 6 6 6 7 7 8 8 8 6 2 3 4 6
2 1 1 5 3 2 6 5 4 5 1 4 4 7 4 5 3 1 2 4 2 4 2 5 12 14 14 15 15 13 11 10 12 12 9 3 4 7 8 8 7 5 5 4 3 1 1 1 3 6 6 6 5 5 3 1 2 3 3 4 4 3 2 2 2 3 4 3 4 4 7 7 6 5 5 5 5 3 4 6 5 5 5 5 7 7 7 7 6 6 6 6 9 7 3 3 2
2 4 3 2 4 4 6 6 4 3 1 4 7 3 2 5 3 2 3 5 4 1 2 2 2 2 1 2 5 9 15 15 11 6 2 4 7 7 6 5 4 4 4 4 3 2 1 1 2 3 3 4 3 3 3 2 3 4 4 4 3 3 3 3 2 3 5 6 4 3 5 8 8 5 4 6 4 2 2 2 4 5 5 4 5 7 7 7 7 6 7 7 8 9 7 4 5
2 5 8 7 5 6 4 4 4 6 2 5 5 3 2 4 4 4 3 6 2 1 5 4 2 1 2 6 6 2 3 4 3 7 6 4 5 5 4 5 5 4 4 4 5 4 4 4 2 3 2 2 2 2 3 3 3 5 4 4 4 2 2 3 5 4 4 5 6 3 5 5 5 6 4 3 4 4 4 4 2 4 5 5 5 5 6 6 6 6 7 7 6 4 8 8 7
1 6 10 9 8 2 2 2 2 2 3 2 2 6 1 5 6 10 6 5 7 7 5 4 3 3 5 6 4 2 2 4 5 5 4 4 4 3 2 2 2 2 2 3 4 6 5 5 5 7 6 1 3 4 0 1 2 1 3 5 3 2 2 1 1 2 2 0 1 2 4 4 2 3 7 6 7 6 3 3 4 4 5 5 4 5 6 7 7 7 6 5 5 6 6 8 9
3 4 6 4 4 5 5 3 3 2 2 3 5 3 4 0 4 5 8 3 8 11 10 9 6 4 3 3 5 5 3 3 4 5 6 5 3 2 2 1 1 1 2 2 4 4 6 5 5 6 6 5 5 4 7 6 3 4 5 3 1 2 5 5 4 4 4 4 2 4 4 5 7 5 5 6 8 6 4 5 6 6 5 5 5 5 6 5 5 3 4 4 5 5 6 8 7
5 3 6 6 8 6 4 4 2 1 2 3 7 3 2 1 6 7 7 5 7 9 8 10 9 4 3 5 6 5 6 6 5 5 4 3 3 2 1 1 0 0 1 0 0 1 1 1 1 2 5 5 5 8 6 4 2 7 4 1 3 5 4 3 2 2 4 4 6 0 2 3 3 6 5 6 7 6 4 5 5 5 5 5 5 5 4 5 6 7 5 5 5 5 4 3 5
7 4 3 3 3 3 5 4 4 1 4 1 2 0 2 3 5 10 7 4 8 6 8 10 11 9 6 7 5 6 6 6 5 5 4 3 2 2 1 2 1 0 1 2 3 2 0 2 3 3 6 6 5 7 6 8 8 1 4 4 4 2 2 2 3 3 4 5 6 5 2 1 3 4 6 6 7 6 5 6 6 6 6 6 5 5 4 5 5 5 6 6 5 5 3 4 6
1 3 4 3 5 2 3 6 3 4 1 4 4 1 5 0 4 5 5 4 3 3 5 8 10 12 13 10 9 7 6 5 4 4 4 2 1 0 1 1 1 0 1 0 2 1 0 0 3 5 7 8 10 8 9 11 8 6 9 6 6 7 5 4 4 4 4 4 5 6 5 4 4 4 5 5 6 7 8 7 6 5 5 5 5 5 6 6 6 6 5 5 5 6 5 5 3
3 2 4 2 0 6 5 4 5 3 2 3 4 1 3 4 2 3 4 5 7 8 7 8 10 11 10 9 8 8 6 4 4 4 3 2 1 1 1 2 2 4 3 1 2 2 1 0 2 5 6 7 9 9 12 10 7 8 10 8 8 8 5 4 5 5 5 5 5 6 5 4 4 4 3 4 4 4 6 5 4 4 5 5 6 6 6 6 5 5 6 6 6 6 5 5 4
3 4 5 7 2 2 2 2 1 3 5 2 1 3 5 4 1 3 3 5 8 8 7 7 8 9 10 9 8 6 5 5 4 3 3 3 3 4 4 4 4 3 3 1 3 5 5 4 4 4 8 9 9 10 13 6 8 9 10 9 7 6 6 5 4 5 4 4 5 6 6 5 5 6 5 5 4 5 5 5 5 5 5 5 5 5 5 5 5 5 6 6 6 7 7 7 6
6 7 6 6 2 2 2 1 0 2 5 2 4 1 3 2 2 2 3 5 7 7 8 8 9 9 8 8 7 7 6 6 6 5 5 6 6 6 7 7 6 6 6 5 2 2 3 4 4 6 5 8 8 11 11 9 11 11 11 9 6 5 6 6 5 6 5 4 5 7 7 6 6 6 6 7 6 5 5 5 5 5 5 5 5 5 5 4 5 6 5 6 6 6 6 7 7
8 3 9 7 7 4 2 3 4 7 7 2 3 1 4 7 4 3 3 5 7 7 6 6 7 8 8 8 9 9 8 7 6 6 7 7 8 8 7 7 7 7 7 6 2 3 2 2 3 7 10 9 10 12 9 11 12 13 8 5 6 6 7 6 6 5 5 5 5 6 6 6 5 4 5 4 4 5 4 3 4 4 4 4 4 4 4 5 5 5 5 5 5 5 5 5 4
0 3 6 7 5 7 1 4 4 3 2 1 3 1 0 3 2 3 4 4 7 8 6 6 8 8 7 8 8 7 6 6 5 5 7 8 7 7 7 7 7 7 7 5 3 3 2 4 5 7 11 13 14 14 10 12 12 9 9 9 8 7 7 6 6 5 5 5 4 5 6 6 5 4 2 3 3 4 4 4 4 4 3 3 4 4 5 5 4 5 4 4 5 3 5 5 5
3 3 4 4 5 10 5 1 0 1 4 1 1 4 3 1 1 2 5 8 8 8 6 6 8 8 8 8 6 6 5 5 5 6 6 6 6 7 6 6 5 6 7 7 6 3 5 5 4 5 6 7 10 10 8 8 7 6 9 10 9 8 8 8 8 8 7 6 5 4 5 5 5 5 5 3 4 3 4 5 4 4 4 4 4 4 5 5 4 5 5 4 5 3 4 5 5
6 2 7 2 3 5 7 5 3 3 3 2 1 6 5 4 1 2 7 8 7 7 5 6 7 7 10 8 7 7 7 6 5 5 5 7 8 8 7 6 6 7 6 6 6 5 4 5 6 6 6 9 10 6 6 8 10 10 8 10 10 9 9 8 7 7 6 7 6 5 4 5 6 6 6 5 5 5 4 5 5 4 4 4 5 4 4 4 4 4 4 4 4 4 4 3 4
10 9 5 6 1 2 2 5 1 1 1 1 3 0 2 3 2 4 8 8 8 6 5 6 7 8 8 8 8 8 8 8 8 10 10 10 10 10 9 8 7 7 6 7 6 5 5 4 5 6 8 8 8 4 2 3 3 6 7 9 9 8 7 7 6 5 5 6 7 6 6 5 4 5 6 6 5 5 4 4 4 5 5 5 4 5 4 4 4 4 3 3 3 4 5 4 3
4 5 4 1 6 4 3 4 4 6 3 2 0 3 3 3 3 6 9 9 9 7 6 7 6 6 6 6 7 8 8 8 8 8 8 9 9 9 10 10 10 10 9 7 6 4 5 4 2 4 6 6 6 6 3 3 3 3 4 3 3 5 5 6 6 6 6 6 6 6 6 4 3 1 3 6 6 6 5 5 4 5 4 4 4 4 5 4 4 4 5 5 3 4 5 5 3
2 2 1 1 1 2 6 1 2 4 5 4 4 0 2 2 3 6 9 9 9 7 6 6 5 6 6 6 7 6 7 7 7 8 7 8 8 9 9 9 8 7 6 6 8 8 7 6 6 6 6 5 5 5 5 3 3 3 3 2 2 4 6 5 5 5 6 6 4 5 6 7 6 6 4 1 6 6 6 5 5 5 5 4 4 4 3 4 4 4 4 4 4 4 5 3 4
8 8 6 8 5 4 4 4 1 3 3 3 4 3 2 2 2 4 9 9 9 8 8 6 6 8 7 8 8 7 7 7 7 7 8 8 9 9 10 9 9 8 9 10 10 9 10 9 7 7 5 5 4 3 1 2 2 2 2 2 2 2 4 4 4 5 4 5 4 4 5 6 7 6 9 3 3 5 5 5 5 4 4 4 4 4 4 4 5 4 4 3 4 4 4 3 3
Wind_Direction
209 175 222 143 70 87 65 357 147 306 67 259 329 172 264 229 252 329 282 323 254 352 46 60 56 39 109 164 141 137 26 148 213 122 210 243 38 141 164 147 146 151 149 152 152 151 151 147 143 138 136 134 132 131 129 129 128 130 128 126 122 121 120 120 121 120 119 119 119 119 119 118 118 119 118 114 112 111 110 110 111 113 115 115 113 113 97 94 92 90 91 90 92 90 89 89 84
227 209 161 136 93 73 269 121 99 350 39 16 246 132 248 261 67 226 250 243 201 117 93 88 84 90 98 122 134 132 40 16 302 209 352 358 81 143 163 155 162 162 156 152 147 144 144 145 142 140 138 136 134 133 132 132 131 131 130 127 125 123 124 124 123 122 121 121 121 121 121 121 122 122 118 115 112 113 112 111 112 113 112 113 116 112 103 100 91 93 89 89 91 91 85 81 81
253 127 38 29 18 86 71 43 269 68 105 244 272 214 303 307 222 251 230 229 177 147 123 98 99 73 68 58 32 42 245 307 65 94 118 132 130 218 177 158 163 154 148 143 140 137 141 146 145 142 139 137 137 136 135 133 135 133 132 130 127 128 127 126 124 124 123 122 123 123 123 124 123 123 121 118 117 114 111 110 110 112 114 114 113 112 111 103 102 98 96 91 90 90 88 86 85
88 50 125 72 318 23 68 30 86 127 130 211 301 265 212 212 267 244 257 250 295 170 157 33 44 283 118 65 100 66 53 236 245 147 136 190 233 155 160 154 151 139 141 143 138 138 140 152 146 142 142 140 141 140 136 137 136 135 134 133 131 130 129 126 124 125 125 124 124 125 125 125 125 125 123 120 113 111 107 106 109 110 112 114 112 109 111 112 110 108 105 103 98 93 90 76 73
56 10 82 86 110 353 106 184 143 109 189 198 198 270 228 227 251 292 280 280 59 281 90 132 80 1 57 99 69 160 210 40 298 203 321 229 278 149 145 149 142 143 146 146 139 140 146 147 147 146 143 145 144 143 140 138 137 137 137 135 133 131 129 128 127 127 127 126 126 127 127 126 127 127 126 121 117 110 108 107 109 109 110 109 107 104 101 105 106 107 105 99 96 86 75 69 64
57 49 357 88 107 190 49 42 23 195 227 163 221 259 243 231 252 286 293 310 253 85 134 90 147 168 52 5 262 213 169 142 263 160 197 229 144 142 143 141 139 147 149 142 145 145 147 147 149 146 145 146 146 144 141 139 137 137 137 136 135 133 132 131 130 130 128 127 128 129 130 129 128 128 127 124 112 109 111 113 110 111 112 111 107 103 102 100 98 99 97 90 85 80 74 66 60
197 46 355 22 2 61 163 148 230 205 263 171 241 267 270 282 226 335 301 348 42 65 317 117 116 111 90 270 53 275 5 331 89 284 183 152 126 128 133 131 134 141 144 145 144 145 149 146 148 147 147 149 148 146 143 141 140 140 140 139 137 136 135 135 132 131 130 129 130 131 130 130 129 130 129 125 118 116 118 118 117 115 112 109 105 102 101 97 95 93 92 90 89 86 80 74 66
75 106 259 110 225 48 210 213 247 161 272 186 239 264 277 276 294 304 298 79 273 97 68 100 330 92 285 242 195 267 8 35 334 103 116 130 123 123 133 137 138 141 140 135 138 145 150 146 147 148 149 151 151 148 145 144 142 143 143 141 139 138 137 136 134 131 131 132 133 132 132 131 131 132 130 127 123 123 123 120 120 117 113 108 104 103 101 102 102 101 100 99 96 93 88 79 74
356 84 303 81 191 28 47 237 253 232 277 281 271 260 273 269 275 283 281 291 85 60 129 151 172 74 240 57 190 295 1 19 24 93 122 115 122 127 135 144 145 140 138 139 142 152 146 149 145 149 151 154 150 148 146 146 145 145 143 141 140 137 137 138 136 133 133 134 135 133 133 134 133 132 131 129 128 127 126 122 119 115 111 110 109 107 104 104 106 105 104 103 101 97 90 86 81
24 95 248 146 125 233 346 291 217 244 223 239 241 264 261 279 291 256 252 340 144 112 346 22 107 123 143 136 319 326 323 6 50 70 69 80 82 88 121 130 141 143 142 144 148 147 146 149 149 150 153 151 148 148 147 147 148 146 143 140 137 135 138 137 136 136 136 137 135 136 134 134 133 133 132 132 131 128 125 122 120 117 114 115 114 112 111 109 107 107 107 106 103 97 94 90 80
350 3 154 77 30 201 237 277 262 296 260 287 279 245 251 261 250 278 225 160 155 123 149 105 67 120 135 96 248 2 19 25 58 89 79 79 73 80 100 110 136 148 148 148 147 143 151 151 153 151 152 150 148 147 147 149 148 145 142 142 142 140 137 139 140 137 136 138 138 137 135 135 135 134 134 134 132 126 126 124 121 117 118 119 119 118 117 112 107 106 106 107 100 96 92 83 77
70 142 37 106 187 162 232 213 271 271 282 291 279 273 231 214 189 157 148 116 124 155 173 190 154 146 85 149 279 318 12 29 39 48 83 70 75 81 104 102 135 145 147 142 141 144 145 150 151 154 151 149 150 151 151 152 151 149 149 148 145 141 138 142 141 138 140 138 139 137 136 136 134 135 136 133 131 127 128 128 119 118 123 122 120 122 119 113 108 108 109 104 99 96 85 79 77
137 104 87 92 223 130 224 267 259 290 309 275 233 282 58 134 190 147 92 84 133 172 269 180 146 173 112 207 304 347 305 246 65 78 73 75 67 75 95 111 127 137 139 135 138 143 141 141 144 150 153 154 154 153 153 153 152 151 150 146 144 140 140 142 143 143 142 142 141 140 139 137 136 135 133 136 133 131 131 121 119 123 126 124 121 121 120 116 114 113 110 103 100 92 86 80 73
122 181 121 212 83 173 197 252 309 310 292 252 251 266 239 78 327 150 106 73 12 295 355 126 134 126 71 80 278 261 223 116 120 95 94 85 79 90 100 114 126 137 131 135 141 136 133 130 131 135 147 140 148 153 156 153 150 147 145 145 144 144 140 140 141 140 142 142 141 139 139 137 136 133 132 135 134 127 127 123 123 127 125 125 124 124 122 120 118 114 107 104 98 91 89 80 76
208 174 84 128 4 57 251 175 204 151 276 266 272 353 39 10 97 63 103 115 47 83 88 28 170 349 202 166 229 222 179 136 141 117 107 93 87 86 95 101 110 121 122 124 127 131 128 122 115 116 124 113 114 110 122 148 141 141 140 142 143 142 137 140 140 140 144 144 144 141 140 140 139 136 132 134 125 127 130 126 127 127 126 126 126 126 123 120 117 112 105 98 91 91 86 79 75
195 90 95 177 243 171 270 196 273 221 262 287 274 317 54 26 45 94 297 196 141 29 15 184 349 188 168 176 227 173 121 135 135 119 107 102 88 87 102 102 97 96 105 107 114 113 120 116 113 108 101 96 88 79 85 108 140 127 133 136 137 134 135 137 143 145 150 148 144 141 140 140 140 138 136 131 131 133 129 130 130 128 128 127 126 124 122 121 117 108 100 92 89 87 79 79 90
105 83 325 58 274 153 258 189 134 238 259 275 296 16 89 27 322 77 20 39 103 2 61 12 309 322 160 252 119 109 117 127 124 121 113 109 115 107 98 94 96 90 88 92 88 92 98 104 104 102 102 104 97 92 107 126 148 145 136 135 137 138 140 144 147 151 156 155 147 143 136 128 132 142 134 134 132 127 133 134 132 131 129 130 127 124 120 117 113 106 99 92 88 82 78 76 106
110 159 130 278 195 176 220 206 198 142 296 292 323 27 105 85 41 109 36 44 72 61 43 11 46 48 60 60 94 107 124 133 138 133 134 132 133 127 116 116 117 109 104 95 89 95 99 101 109 110 110 110 105 104 118 144 139 145 133 145 148 150 149 148 150 152 153 153 154 144 131 136 126 125 136 129 121 136 139 137 137 133 133 131 128 120 116 114 110 104 95 89 83 75 72 70 81
165 151 123 225 185 239 178 218 259 350 275 283 286 294 100 150 127 202 84 343 101 63 41 38 73 68 76 94 104 118 139 142 144 146 144 146 143 139 137 130 124 116 104 102 92 99 96 109 103 110 111 111 108 109 124 134 133 134 135 145 156 156 160 148 144 151 133 145 133 125 125 119 123 125 126 134 129 139 142 141 143 140 135 136 130 122 118 113 107 99 89 79 75 75 67 64 93
223 121 206 240 205 243 246 243 273 240 237 295 281 325 55 206 119 105 124 140 54 131 131 32 106 130 124 119 120 131 143 145 149 148 146 136 128 142 145 150 137 134 107 92 102 82 94 109 108 113 120 123 115 120 123 135 137 129 134 135 144 150 142 136 142 142 139 127 130 119 117 132 135 143 147 142 140 129 142 146 151 147 141 136 135 111 108 112 101 89 79 68 66 77 71 71 85
266 145 206 230 206 237 268 248 251 279 286 233 233 318 12 95 155 102 142 92 249 262 218 164 177 156 139 135 136 148 155 157 152 148 143 133 138 120 135 120 123 115 110 102 89 96 106 118 109 117 127 134 131 136 141 143 134 136 133 133 136 137 135 129 142 141 134 131 129 130 135 141 142 141 137 128 120 125 122 136 144 119 104 110 110 90 82 79 74 80 67 63 68 83 77 76 84
108 215 240 192 325 182 260 245 271 265 268 123 267 63 252 67 65 123 153 137 219 200 205 227 162 156 149 151 155 156 162 155 146 152 159 160 159 154 137 124 112 109 123 110 119 124 123 118 124 141 138 140 148 156 158 161 155 155 149 150 150 148 151 149 144 142 131 135 133 139 137 137 145 123 124 136 134 131 133 142 141 126 119 121 109 121 102 100 85 84 95 75 57 76 96 81 95
248 298 238 209 224 233 284 223 264 253 292 261 341 201 103 23 135 203 146 174 234 193 154 166 169 154 149 143 153 165 161 160 167 169 167 159 157 164 162 152 148 144 139 129 133 132 145 143 146 145 150 149 151 155 158 157 152 151 145 149 156 156 157 159 165 145 145 143 142 147 140 139 131 125 130 137 135 135 138 148 155 151 150 145 148 135 167 110 96 94 93 84 59 60 85 112 122
183 251 274 280 209 234 254 264 278 298 244 237 232 99 346 17 327 161 139 264 262 120 118 130 137 139 145 152 171 164 163 166 171 173 178 183 178 173 166 157 146 131 135 145 149 151 161 164 151 152 152 151 151 154 154 137 133 140 150 166 173 172 165 171 170 165 153 152 155 156 143 140 142 146 150 157 153 147 154 153 148 153 154 156 135 139 149 64 79 77 85 57 61 52 41 87 130
203 258 255 257 265 243 249 236 250 265 271 277 86 198 224 191 212 71 141 284 111 108 119 132 138 142 150 157 163 161 161 164 170 173 175 150 115 127 141 144 147 149 151 159 159 162 177 167 147 148 149 147 149 149 145 127 135 141 154 165 159 177 171 177 179 154 156 161 152 136 131 133 127 127 155 168 152 167 148 141 154 170 161 166 149 156 149 123 94 98 75 69 70 41 51 95 115
206 228 241 268 260 257 244 255 253 238 250 228 206 258 265 240 292 49 268 119 121 119 122 140 142 146 156 166 167 168 163 171 165 164 176 152 146 149 173 170 164 175 171 159 164 175 176 164 155 154 155 154 150 144 140 139 151 149 155 151 159 161 162 167 121 139 145 179 140 102 102 116 123 133 167 192 170 166 152 148 161 172 179 174 167 192 175 139 142 122 90 84 74 59 79 104 117
181 224 236 248 255 258 244 213 234 216 222 160 202 245 257 271 123 287 302 188 124 119 128 141 150 156 164 165 173 182 173 175 170 154 129 149 164 178 185 179 184 179 151 165 168 174 171 157 157 151 150 152 144 135 126 125 133 139 148 140 142 138 117 83 44 53 286 76 52 80 75 57 92 161 183 191 185 163 163 163 175 173 178 189 189 205 174 167 156 158 149 135 116 95 90 100 116
237 223 297 273 261 256 250 274 241 140 248 181 180 225 276 326 111 177 185 199 146 132 137 147 154 167 169 169 181 186 184 176 154 151 159 164 182 188 187 188 189 165 175 180 173 164 163 161 154 157 151 136 120 106 106 121 143 154 143 127 120 95 62 49 55 28 268 27 21 25 154 171 169 206 189 179 185 168 170 176 172 177 196 188 194 196 183 126 148 111 104 104 102 105 96 84 91
267 23 323 289 340 310 227 204 217 169 251 171 162 30 312 338 218 185 168 150 154 138 145 155 164 168 171 176 186 192 190 171 160 171 180 186 186 187 191 193 177 183 189 166 160 161 167 162 162 152 130 124 112 106 119 157 182 169 129 126 113 114 119 133 155 192 137 111 99 4 315 186 184 194 184 179 181 172 171 179 186 187 187 182 185 183 131 122 108 89 81 93 92 95 94 87 86
312 89 174 314 345 331 273 230 171 160 232 161 148 255 262 254 284 190 148 143 135 136 149 162 168 170 172 180 192 200 192 172 179 190 189 189 187 190 190 188 185 180 165 150 147 166 165 166 155 135 131 118 111 120 158 179 190 155 122 129 133 137 153 163 157 149 153 162 143 145 235 261 215 200 169 175 169 173 179 186 189 194 188 172 172 160 141 151 126 115 128 102 98 103 105 109 108
205 247 100 230 20 267 285 212 176 159 120 167 92 202 277 266 260 206 166 148 153 162 164 167 170 174 178 182 194 203 198 195 192 193 192 192 192 190 189 177 176 157 144 153 172 172 172 168 147 128 126 120 133 170 167 173 147 69 59 34 154 132 151 169 165 153 163 173 152 162 190 222 228 205 175 182 184 177 180 187 190 192 173 166 147 151 152 161 143 139 135 108 103 100 101 95 101
7 26 284 319 155 275 302 297 148 170 334 180 101 262 235 275 160 194 179 163 157 160 171 173 173 179 181 184 195 202 203 206 211 206 199 196 192 189 181 180 167 160 165 171 172 172 174 153 136 130 133 135 175 178 167 141 114 131 162 188 152 176 176 181 182 172 173 175 166 174 195 200 203 199 191 188 192 180 178 179 185 166 165 152 147 145 143 155 146 130 129 128 114 108 108 97 103
355 132 267 271 208 246 345 318 275 206 128 315 155 208 327 326 196 180 184 165 171 160 173 177 179 182 180 187 190 193 197 220 215 209 205 197 198 187 184 170 175 170 161 166 175 173 159 144 137 139 147 158 180 172 133 128 159 185 183 172 179 178 188 187 184 171 176 177 166 170 187 189 192 197 196 201 193 175 177 169 171 160 158 161 144 131 145 155 140 129 118 115 126 127 115 116 118
301 14 190 214 267 311 251 305 341 331 145 203 275 220 237 151 358 185 176 178 173 169 175 180 181 182 186 176 168 181 203 208 206 200 203 195 189 188 182 173 164 159 167 172 177 165 158 149 143 143 149 167 178 168 162 176 186 182 179 185 178 186 190 178 178 173 180 177 167 175 179 184 185 190 204 201 191 170 169 167 163 157 155 152 131 129 146 130 116 132 125 98 125 126 127 130 130
198 307 20 321 333 221 227 73 262 109 33 196 191 221 259 161 76 180 198 195 180 177 171 181 181 184 182 169 157 186 205 210 208 200 196 194 189 192 165 151 148 160 169 174 159 139 135 137 143 152 160 169 172 163 176 189 174 134 226 219 192 193 201 185 178 184 185 179 181 181 184 185 180 183 207 202 177 162 163 165 158 158 149 144 131 124 132 123 120 134 134 107 79 94 125 123 124
149 128 156 156 357 308 322 254 275 279 269 229 196 219 238 233 129 176 214 192 168 176 177 180 186 184 173 164 172 193 205 213 212 201 194 190 196 183 153 138 152 164 170 161 149 149 144 143 151 156 172 172 159 167 169 170 150 166 196 243 244 218 198 202 193 195 189 192 188 183 187 182 174 182 206 209 169 163 163 163 154 151 150 145 137 136 144 149 147 139 133 127 114 97 87 113 117
151 79 53 305 307 293 277 261 258 218 278 232 216 224 235 251 130 135 188 168 143 151 188 192 195 182 169 169 187 199 201 200 203 198 189 190 201 173 148 145 156 164 167 157 156 159 156 152 154 166 178 173 164 169 177 169 176 192 209 207 212 192 176 183 187 186 189 203 201 188 186 171 172 184 211 212 172 165 158 152 142 145 150 155 148 148 146 152 156 145 133 130 130 122 117 123 124
111 335 17 308 330 279 267 289 312 283 170 279 178 213 243 230 159 272 181 160 179 174 177 188 183 176 182 180 191 199 204 223 181 189 196 203 199 146 128 139 146 165 170 156 156 159 159 155 169 173 178 180 179 182 175 178 190 197 178 190 156 139 155 189 181 200 200 184 195 194 126 94 160 171 198 268 206 160 154 153 146 147 154 163 142 126 133 146 141 136 136 112 86 132 130 148 147
65 204 198 2 289 245 287 294 276 315 149 279 126 180 234 231 45 147 169 185 194 185 179 181 171 173 177 189 192 190 200 198 196 192 197 204 166 104 65 39 32 24 16 21 46 130 159 167 177 182 184 185 190 187 168 183 189 112 112 146 174 170 180 178 191 204 103 202 201 173 106 116 167 194 183 179 221 241 167 153 148 146 153 151 132 127 134 145 158 156 160 148 128 75 99 147 164
143 84 84 230 235 18 303 290 323 346 138 211 176 175 274 347 337 359 259 221 274 227 220 179 173 170 177 189 187 185 193 185 191 191 196 165 70 52 43 44 41 41 44 34 37 33 321 285 208 197 198 195 197 200 190 129 125 99 84 138 152 140 153 143 162 183 176 222 259 179 146 163 174 184 187 183 166 209 205 158 143 146 153 159 150 139 145 154 164 159 148 152 137 128 138 168 183
274 166 177 224 252 224 183 261 315 311 8 79 79 49 339 355 43 62 356 332 316 181 123 138 245 246 295 246 213 193 184 187 183 180 137 60 60 64 82 103 105 114 102 94 93 114 178 283 283 257 252 221 216 211 204 169 128 88 81 76 84 75 85 142 160 210 188 207 201 239 135 171 172 173 200 177 163 183 233 125 142 146 147 159 155 147 152 164 176 168 158 152 160 149 154 143 188
314 227 186 208 224 249 277 305 7 21 353 347 110 55 302 298 283 134 16 342 333 316 169 167 179 293 164 188 209 261 333 11 42 51 64 99 102 111 129 136 139 133 136 146 138 137 137 161 169 208 265 315 302 242 198 213 210 161 138 141 161 149 131 145 199 206 192 199 215 176 113 184 165 161 188 184 131 154 171 137 137 154 151 157 163 156 137 142 170 172 175 162 154 167 154 154 174
128 270 186 204 221 194 171 281 69 11 91 359 68 129 255 325 13 345 24 351 8 20 23 350 306 250 192 191 185 194 36 52 68 96 93 81 68 77 58 59 61 84 161 153 143 154 158 159 153 175 179 167 6 346 295 256 281 287 214 185 168 158 133 138 153 239 262 347 127 222 159 156 145 188 176 170 152 167 162 157 175 184 158 160 154 147 159 168 175 179 161 158 161 146 144 162 178
226 237 155 167 142 153 202 126 119 186 251 299 48 110 143 274 337 349 348 106 46 22 5 350 309 264 326 17 35 35 58 79 96 87 72 67 89 110 116 81 77 190 209 171 161 171 178 184 167 158 153 144 127 59 360 355 6 296 240 219 151 199 203 204 188 194 160 178 142 240 169 145 169 203 182 151 148 177 173 182 176 179 160 160 158 171 175 160 154 161 163 149 142 160 169 170 172
212 229 148 170 170 176 159 97 109 83 108 284 328 350 71 291 285 330 4 55 26 33 4 352 340 292 129 101 113 105 82 74 77 88 86 79 78 82 109 120 215 290 324 13 72 188 167 223 234 92 118 129 112 105 98 64 252 262 302 27 216 213 190 202 167 154 180 159 155 54 164 168 158 167 178 145 146 169 177 186 184 173 161 162 159 160 164 160 165 160 159 153 168 171 190 176 159
266 218 98 74 81 79 119 108 94 357 71 275 264 75 119 291 309 348 344 55 21 3 12 22 16 21 71 80 81 88 95 96 83 73 67 63 59 75 97 126 104 288 319 11 27 19 49 168 180 143 135 163 117 126 143 173 198 160 283 281 280 260 206 194 174 187 193 165 157 149 98 162 145 145 137 147 149 165 174 191 199 176 171 162 158 162 158 164 167 167 172 172 170 174 184 171 183
135 130 139 50 38 49 34 65 99 71 52 253 241 252 130 193 313 350 351 337 289 318 38 28 28 37 49 63 75 68 69 69 77 76 56 28 1 37 120 123 153 235 274 121 85 74 344 276 176 160 149 151 149 163 184 203 170 190 224 218 232 246 224 207 205 207 204 182 158 130 143 197 178 160 151 168 176 173 175 188 192 178 171 167 163 158 170 173 176 171 169 168 175 178 186 184 173
167 155 156 147 323 8 32 345 40 93 279 257 254 161 110 134 282 347 360 30 37 43 42 38 44 47 49 54 60 64 62 60 57 52 30 355 344 336 333 260 222 207 204 188 123 139 131 229 131 130 100 72 117 177 207 209 142 197 219 215 208 225 223 216 203 213 202 187 146 134 144 185 158 142 134 162 181 181 173 181 181 176 173 171 172 174 177 174 170 163 161 171 181 182 176 178 166
124 90 77 147 242 58 243 11 154 162 172 237 172 195 44 31 197 261 21 32 44 38 39 46 54 52 55 51 47 45 53 51 45 38 23 9 356 337 330 310 313 308 297 256 179 176 181 183 181 128 94 112 161 189 200 152 167 200 214 208 202 201 215 223 215 218 206 181 151 142 156 179 154 150 172 180 196 185 175 173 177 180 184 182 175 173 180 169 161 161 163 164 163 168 177 176 173
143 163 139 102 118 60 180 276 222 326 296 237 206 73 85 149 141 307 35 44 53 54 53 54 61 62 57 54 41 35 34 28 17 12 6 2 0 354 356 348 338 336 345 349 340 244 197 181 167 103 129 140 177 198 198 160 175 197 208 204 189 178 206 213 220 213 203 183 166 160 165 170 173 172 167 186 190 179 178 187 184 184 182 178 175 170 164 163 160 161 161 158 168 172 165 176 180
196 145 144 170 142 157 181 191 167 194 184 244 277 110 198 165 176 136 71 48 70 70 54 53 63 64 66 62 54 44 33 24 15 11 11 3 359 2 354 351 350 349 344 348 11 309 283 238 171 153 167 181 199 209 188 180 195 202 194 185 179 181 199 205 213 215 203 191 181 170 168 163 177 176 172 176 171 175 177 184 189 180 178 176 157 149 152 156 162 157 162 164 152 154 158 158 160
302 154 66 102 207 141 145 202 147 169 167 54 7 104 261 150 75 94 81 69 71 74 56 53 54 60 67 64 58 54 43 35 19 15 12 18 6 360 1 352 356 355 354 356 11 327 249 220 216 194 185 191 202 211 195 197 209 190 166 175 181 186 190 195 201 201 201 198 191 180 177 175 173 166 151 129 171 166 169 185 191 187 167 155 148 147 151 154 155 149 141 141 153 155 147 153 160
222 89 160 208 174 110 81 68 74 139 70 135 213 97 63 164 54 102 98 73 58 68 69 59 56 59 64 64 64 61 57 44 33 25 16 10 7 5 4 354 359 5 10 4 356 348 330 314 284 236 229 229 227 221 203 200 223 213 179 178 178 179 181 186 193 193 185 179 178 184 183 180 160 153 135 160 156 167 168 171 185 170 164 159 148 152 155 155 153 152 151 151 159 157 150 157 151
84 136 224 107 88 100 130 188 331 56 146 230 40 138 163 144 186 190 114 102 91 90 71 70 64 62 63 58 55 52 43 34 23 18 11 15 14 14 13 10 11 10 6 1 358 6 2 350 338 302 258 241 245 241 213 198 200 210 195 184 184 181 178 182 183 186 175 164 170 167 156 164 174 160 165 160 162 165 170 165 167 166 163 159 162 157 157 156 148 153 156 162 164 151 145 135 161
155 193 171 116 212 223 321 97 122 108 179 221 3 315 152 149 176 168 129 117 113 105 92 76 65 60 59 58 51 41 28 18 18 21 21 22 22 18 14 15 13 9 9 2 357 358 3 6 344 329 309 291 284 302 277 269 227 219 208 195 185 174 172 172 173 173 163 165 168 168 174 175 156 154 148 148 155 155 155 157 158 154 156 158 157 161 158 152 152 142 144 151 155 155 149 163 172
38 86 88 80 104 149 120 201 171 119 209 86 355 97 201 216 187 155 134 132 128 122 116 104 87 78 68 49 42 37 31 22 21 23 22 20 21 18 15 17 20 20 17 9 5 2 0 344 327 300 294 300 309 296 252 221 259 263 251 227 186 165 164 168 172 165 173 177 170 157 148 121 105 96 135 148 150 153 155 148 150 139 135 137 150 161 159 152 148 155 151 152 172 159 154 165 159
131 75 356 218 36 209 104 38 107 165 167 170 145 336 272 259 220 155 141 138 138 132 122 107 89 92 69 54 50 52 40 25 19 16 12 16 9 12 14 12 14 9 11 11 13 12 0 350 348 342 337 343 329 298 292 262 235 266 287 261 180 164 172 173 169 170 177 182 163 155 143 136 125 108 38 311 148 155 150 145 138 132 134 139 142 147 155 145 149 151 154 154 158 163 156 152 139
166 163 183 170 109 130 149 252 11 88 106 183 127 223 271 262 216 170 136 136 141 137 130 101 96 73 64 50 40 37 40 27 21 9 10 14 6 5 11 12 9 2 4 11 12 9 3 356 349 343 343 13 359 342 308 331 306 290 289 230 191 168 169 168 169 174 175 168 153 140 142 134 136 121 112 250 205 143 141 139 134 130 132 138 141 143 146 147 147 142 145 155 157 150 138 142 139